Theta_e
329 324 322 324 322 320 316 315 319 317 318 316 314 315 317 315 313 315 314 310 313 309
327 326 324 324 323 318 318 316 316 317 316 313 314 315 315 312 313 314 313 312 310 310
325 324 324 323 320 318 317 317 316 316 313 312 313 313 314 313 313 313 314 311 311 313
320 323 322 319 317 317 317 316 316 314 312 311 311 314 313 313 312 311 312 312 309 308
323 320 320 317 317 317 315 316 315 311 309 310 312 313 312 311 311 311 311 311 310 310
320 320 317 317 316 315 315 315 311 309 309 311 312 311 311 311 311 312 312 313 312 313
319 316 315 316 315 315 314 311 308 309 310 311 312 312 311 312 312 312 311 312 311 311
316 316 315 313 313 313 309 308 308 308 310 312 311 312 311 313 313 310 307 308 309 311
314 314 313 313 311 308 307 309 307 308 311 311 312 304 305 308 312 308 307 307 309 309
314 312 311 308 307 309 310 312 310 311 311 309 311 300 300 303 312 309 310 310 311 313
313 310 307 309 309 307 308 307 309 310 309 312 310 299 299 302 312 312 310 311 312 313
310 307 309 307 306 304 305 305 309 310 312 310 313 299 299 307 316 316 314 315 315 315
311 310 306 308 308 308 306 306 309 311 312 307 313 299 299 306 315 315 316 316 317 302
312 309 311 310 311 307 309 312 311 311 311 311 307 305 297 298 313 315 312 313 313 313
Wind_Speed
5 7 8 9 10 10 10 10 11 11 11 13 12 13 11 9 9 9 8 7 9 5
5 7 9 10 10 9 11 10 11 12 12 12 11 11 9 9 9 8 7 7 7 5
5 8 9 10 12 12 10 11 12 12 11 11 10 11 10 9 9 8 6 5 8 7
7 8 9 11 11 10 10 10 12 11 10 8 11 11 9 10 10 8 7 6 5 6
7 9 10 11 11 10 10 11 12 8 8 10 12 9 9 9 8 9 8 5 7 8
8 10 11 10 10 10 10 12 9 6 10 9 9 8 7 9 9 8 5 9 9 7
10 11 10 10 9 9 12 10 7 9 9 10 7 7 7 7 7 7 8 9 9 10
11 10 10 9 9 11 8 7 7 8 7 7 5 5 8 8 8 9 8 8 7 6
10 10 10 9 11 9 8 8 7 8 8 5 3 7 7 9 7 6 6 7 8 8
10 11 11 10 8 10 10 10 7 6 5 4 5 10 9 9 5 4 5 6 7 6
12 12 10 10 12 11 9 9 6 5 5 5 8 10 8 8 4 3 5 6 6 8
10 10 11 11 10 8 7 6 6 5 8 8 9 10 9 10 4 5 7 7 12 10
8 10 9 9 9 8 5 2 0 6 9 7 10 12 12 11 5 6 6 9 12 16
10 8 9 9 8 6 5 6 9 10 10 9 10 10 11 14 6 6 7 8 9 8
Wind_Direction
320 319 313 337 329 315 317 319 324 310 307 315 305 290 289 284 286 287 275 267 253 253
330 334 329 321 316 313 313 323 306 316 313 309 297 295 301 290 290 287 288 278 269 267
347 316 322 316 315 313 316 305 312 308 314 299 300 296 293 292 288 287 294 268 264 258
317 326 322 318 316 310 308 318 317 319 307 298 291 293 298 297 302 299 296 300 286 259
321 319 320 321 310 310 316 312 318 326 302 290 289 307 308 302 313 304 304 288 247 256
324 323 329 318 316 318 316 324 340 301 286 298 306 316 318 306 297 301 305 302 305 289
335 335 325 323 326 326 343 334 315 300 290 292 320 321 309 295 314 344 347 350 331 318
340 335 329 338 346 348 335 318 309 303 298 305 331 348 341 331 347 10 346 333 322 315
349 338 349 358 353 331 319 308 319 303 302 9 358 15 356 323 9 1 344 334 334 334
350 354 7 352 324 323 317 326 331 342 37 348 49 20 353 322 27 355 352 353 4 18
5 7 350 330 1 349 348 352 347 28 16 18 60 17 341 322 59 25 39 14 13 55
15 357 348 4 353 346 343 342 19 23 36 14 40 14 351 344 33 58 85 61 40 84
4 12 1 9 1 4 357 358 187 69 43 29 46 24 12 355 16 53 81 80 77 45
21 11 20 8 24 26 12 48 55 53 45 42 32 30 12 10 16 22 68 64 71 70